Weather History for SBBH - March, 2013

Change the Weather History Date:

Thursday, March 7, 2013

  Actual Average Record
Temperature  
Mean Temperature 76 °F -  
Max Temperature 86 °F 82 °F 91 °F (2001)
Min Temperature 66 °F 66 °F 66 °F (1999)
Cooling Degree Days 11    
Growing Degree Days 26 (Base 50)    
Moisture  
Dew Point 67 °F    
Average Humidity 78    
Maximum Humidity 94    
Minimum Humidity 55    
Precipitation  
Precipitation 0.00 in - - ()
Sea Level Pressure  
Sea Level Pressure 30.07 in    
Wind  
Wind Speed 4 mph ()    
Max Wind Speed 8 mph    
Max Gust Speed -    
Visibility 6.2 miles    
Events      
Averages and records for this station are not official NWS values.
T = Trace of Precipitation, MM = Missing Value Source: Averaged Metar Reports

Daily Weather History Graph

Daily Weather History Graph

Search for Another Location

Airport or City:

Trip Planner

Search our weather history database for the weather conditions in past years. The results will help you decide how hot, cold, wet, or windy it might be!

Date:

Astronomy

Mar. 07, 2013 Rise Set
Actual Time 5:55 AM BRT 6:17 PM BRT
Civil Twilight 5:33 AM BRT 6:39 PM BRT
Nautical Twilight 5:07 AM BRT 7:05 PM BRT
Astronomical Twilight 4:41 AM BRT 7:31 PM BRT
Moon 1:39 AM BRT (3/7) 3:00 PM BRT (3/7)
Length of Visible Light 13h 05m
Length of Day
12h 21m
Waning Crescent, 21% of the Moon is Illuminated
Mar 7
Waning Crescent
Mar 11
New
Mar 19
First Quarter
Mar 27
Full
Apr 3
Last Quarter

Hourly Weather History & Observations

Time (BRT) Temp. Heat Index Dew Point Humidity Pressure Visibility Wind Dir Wind Speed Gust Speed Precip Events Conditions
12:00 AM 66.2 °F - 64.4 °F 94% 30.09 in 6.2 mi ENE 3.5 mph - N/A   Mostly Cloudy
1:00 AM 66.2 °F - 64.4 °F 94% 30.06 in - Calm Calm - N/A   Clear
2:00 AM 66.2 °F - 64.4 °F 94% 30.06 in - East 3.5 mph - N/A   Clear
3:00 AM 66.2 °F - 64.4 °F 94% 30.04 in - East 3.5 mph - N/A   Clear
4:00 AM 66.2 °F - 64.4 °F 94% 30.04 in - North 3.5 mph - N/A   Clear
5:00 AM 66.2 °F - 64.4 °F 94% 30.06 in - East 2.3 mph - N/A   Clear
6:00 AM 66.2 °F - 62.6 °F 88% 30.06 in - East 3.5 mph - N/A   Clear
7:00 AM 69.8 °F - 66.2 °F 88% 30.09 in - East 4.6 mph - N/A   Clear
8:00 AM 73.4 °F - 64.4 °F 73% 30.12 in - ESE 6.9 mph - N/A   Clear
9:00 AM 77.0 °F - 66.2 °F 69% 30.12 in - East 5.8 mph - N/A   Clear
10:00 AM 80.6 °F 83.9 °F 69.8 °F 70% 30.12 in 6.2 mi ESE 6.9 mph - N/A   Partly Cloudy
11:00 AM 84.2 °F 88.4 °F 69.8 °F 62% 30.09 in 6.2 mi ENE 6.9 mph - N/A   Partly Cloudy
12:00 PM 86.0 °F 89.4 °F 68.0 °F 55% 30.09 in 6.2 mi East 8.1 mph - N/A   Scattered Clouds
1:00 PM 86.0 °F 89.4 °F 68.0 °F 55% 30.06 in 6.2 mi NE 8.1 mph - N/A   Scattered Clouds
2:00 PM 82.4 °F 85.4 °F 68.0 °F 62% 30.01 in 6.2 mi East 8.1 mph - N/A   Partly Cloudy
3:00 PM 78.8 °F - 68.0 °F 69% 30.04 in 6.2 mi ENE 4.6 mph - N/A   Partly Cloudy
4:00 PM 78.8 °F - 68.0 °F 69% 30.01 in 6.2 mi East 5.8 mph - N/A   Partly Cloudy
5:00 PM 78.8 °F - 68.0 °F 69% 30.01 in 6.2 mi SE 4.6 mph - N/A   Partly Cloudy
6:00 PM 77.0 °F - 68.0 °F 74% 30.04 in 6.2 mi ESE 8.1 mph - N/A   Partly Cloudy
7:00 PM 75.2 °F - 69.8 °F 83% 30.06 in - ESE 5.8 mph - N/A   Clear
8:00 PM 77.0 °F - 68.0 °F 74% 30.09 in - SE 4.6 mph - N/A   Clear
9:00 PM 77.0 °F - 69.8 °F 78% 30.09 in - ENE 3.5 mph - N/A   Clear
10:00 PM 73.4 °F - 69.8 °F 88% 30.12 in - East 2.3 mph - N/A   Clear
11:00 PM 73.4 °F - 69.8 °F 88% 30.12 in - East 3.5 mph - N/A   Clear